Year,Month,Day,Hour,Minute,Value (Times are PST for temperature in C)
2014,07,01,00,00,13.70
2014,07,01,00,01,13.70
2014,07,01,00,02,13.70
2014,07,01,00,03,13.70
2014,07,01,00,04,13.70
2014,07,01,00,05,13.60
2014,07,01,00,06,13.60
2014,07,01,00,07,13.60
2014,07,01,00,08,13.60
2014,07,01,00,09,13.60
2014,07,01,00,10,13.60
2014,07,01,00,11,13.60
2014,07,01,00,12,13.60
2014,07,01,00,13,13.60
2014,07,01,00,14,13.60
2014,07,01,00,15,13.60
2014,07,01,00,16,13.60
2014,07,01,00,17,13.60
2014,07,01,00,18,13.60
2014,07,01,00,19,13.70
2014,07,01,00,20,13.70
2014,07,01,00,21,13.70
2014,07,01,00,22,13.70
2014,07,01,00,23,13.70
2014,07,01,00,24,13.70
2014,07,01,00,25,13.70
2014,07,01,00,26,13.80
2014,07,01,00,27,13.80
2014,07,01,00,28,13.80
2014,07,01,00,29,13.80
2014,07,01,00,30,13.80
2014,07,01,00,31,13.80
2014,07,01,00,32,13.80
2014,07,01,00,33,13.80
2014,07,01,00,34,13.70
2014,07,01,00,35,13.70
2014,07,01,00,36,13.60
2014,07,01,00,37,13.60
2014,07,01,00,38,13.50
2014,07,01,00,39,13.50
2014,07,01,00,40,13.40
2014,07,01,00,41,13.40
2014,07,01,00,42,13.40
2014,07,01,00,43,13.40
2014,07,01,00,44,13.40
2014,07,01,00,45,13.40
2014,07,01,00,46,13.40
2014,07,01,00,47,13.30
2014,07,01,00,48,13.30
2014,07,01,00,49,13.30
2014,07,01,00,50,13.30
2014,07,01,00,51,13.30
2014,07,01,00,52,13.30
2014,07,01,00,53,13.30
2014,07,01,00,54,13.30
2014,07,01,00,55,13.30
2014,07,01,00,56,13.20
2014,07,01,00,57,13.20
2014,07,01,00,58,13.20
2014,07,01,00,59,13.20
2014,07,01,01,00,13.20
2014,07,01,01,01,13.20
2014,07,01,01,02,13.20
2014,07,01,01,03,13.10
2014,07,01,01,04,13.10
2014,07,01,01,05,13.10
2014,07,01,01,06,13.10
2014,07,01,01,07,13.10
2014,07,01,01,08,13.10
2014,07,01,01,09,13.10
2014,07,01,01,10,13.10
2014,07,01,01,11,13.00
2014,07,01,01,12,13.00
2014,07,01,01,13,13.00
2014,07,01,01,14,13.00
2014,07,01,01,15,13.00
2014,07,01,01,16,13.00
2014,07,01,01,17,12.90
2014,07,01,01,18,12.90
2014,07,01,01,19,12.90
2014,07,01,01,20,12.90
2014,07,01,01,21,12.90
2014,07,01,01,22,12.90
2014,07,01,01,23,12.90
2014,07,01,01,24,12.90
2014,07,01,01,25,12.80
2014,07,01,01,26,12.80
2014,07,01,01,27,12.80
2014,07,01,01,28,12.80
2014,07,01,01,29,12.80
2014,07,01,01,30,12.80
2014,07,01,01,31,12.80
2014,07,01,01,32,12.80
2014,07,01,01,33,12.80
2014,07,01,01,34,12.80
2014,07,01,01,35,12.80
2014,07,01,01,36,12.80
2014,07,01,01,37,12.80
2014,07,01,01,38,12.80
2014,07,01,01,39,12.80
2014,07,01,01,40,12.80
2014,07,01,01,41,12.80
2014,07,01,01,42,12.80
2014,07,01,01,43,12.80
2014,07,01,01,44,12.80
2014,07,01,01,45,12.80
2014,07,01,01,46,12.80
2014,07,01,01,47,12.80
2014,07,01,01,48,12.80
2014,07,01,01,49,12.80
2014,07,01,01,50,12.80
2014,07,01,01,51,12.80
2014,07,01,01,52,12.80
2014,07,01,01,53,12.80
2014,07,01,01,54,12.80
2014,07,01,01,55,12.80
2014,07,01,01,56,12.80
2014,07,01,01,57,12.80
2014,07,01,01,58,12.80
2014,07,01,01,59,12.80
2014,07,01,02,00,12.80
2014,07,01,02,01,12.80
2014,07,01,02,02,12.80
2014,07,01,02,03,12.80
2014,07,01,02,04,12.80
2014,07,01,02,05,12.80
2014,07,01,02,06,12.80
2014,07,01,02,07,12.80
2014,07,01,02,08,12.80
2014,07,01,02,09,12.80
2014,07,01,02,10,12.80
2014,07,01,02,11,12.70
2014,07,01,02,12,12.70
2014,07,01,02,13,12.70
2014,07,01,02,14,12.70
2014,07,01,02,15,12.70
2014,07,01,02,16,12.70
2014,07,01,02,17,12.70
2014,07,01,02,18,12.70
2014,07,01,02,19,12.70
2014,07,01,02,20,12.70
2014,07,01,02,21,12.70
2014,07,01,02,22,12.70
2014,07,01,02,23,12.60
2014,07,01,02,24,12.60
2014,07,01,02,25,12.60
2014,07,01,02,26,12.60
2014,07,01,02,27,12.50
2014,07,01,02,28,12.50
2014,07,01,02,29,12.50
2014,07,01,02,30,12.50
2014,07,01,02,31,12.50
2014,07,01,02,32,12.40
2014,07,01,02,33,12.50
2014,07,01,02,34,12.40
2014,07,01,02,35,12.40
2014,07,01,02,36,12.40
2014,07,01,02,37,12.40
2014,07,01,02,38,12.40
2014,07,01,02,39,12.40
2014,07,01,02,40,12.40
2014,07,01,02,41,12.30
2014,07,01,02,42,12.30
2014,07,01,02,43,12.30
2014,07,01,02,44,12.30
2014,07,01,02,45,12.30
2014,07,01,02,46,12.30
2014,07,01,02,47,12.30
2014,07,01,02,48,12.30
2014,07,01,02,49,12.30
2014,07,01,02,50,12.30
2014,07,01,02,51,12.20
2014,07,01,02,52,12.20
2014,07,01,02,53,12.20
2014,07,01,02,54,12.20
2014,07,01,02,55,12.20
2014,07,01,02,56,12.20
2014,07,01,02,57,12.20
2014,07,01,02,58,12.20
2014,07,01,02,59,12.20
2014,07,01,03,00,12.20
2014,07,01,03,01,12.20
2014,07,01,03,02,12.20
2014,07,01,03,03,12.20
2014,07,01,03,04,12.10
2014,07,01,03,05,12.10
2014,07,01,03,06,12.10
2014,07,01,03,07,12.10
2014,07,01,03,08,12.10
2014,07,01,03,09,12.10
2014,07,01,03,10,12.10
2014,07,01,03,11,12.10
2014,07,01,03,12,12.10
2014,07,01,03,13,12.10
2014,07,01,03,14,12.10
2014,07,01,03,15,12.00
2014,07,01,03,16,12.00
2014,07,01,03,17,12.00
2014,07,01,03,18,12.00
2014,07,01,03,19,12.00
2014,07,01,03,20,12.00
2014,07,01,03,21,12.00
2014,07,01,03,22,12.00
2014,07,01,03,23,11.90
2014,07,01,03,24,11.90
2014,07,01,03,25,11.90
2014,07,01,03,26,11.90
2014,07,01,03,27,11.90
2014,07,01,03,28,11.90
2014,07,01,03,29,12.00
2014,07,01,03,30,12.00
2014,07,01,03,31,12.00
2014,07,01,03,32,12.00
2014,07,01,03,33,12.00
2014,07,01,03,34,12.00
2014,07,01,03,35,12.00
2014,07,01,03,36,12.00
2014,07,01,03,37,12.00
2014,07,01,03,38,12.00
2014,07,01,03,39,12.00
2014,07,01,03,40,12.00
2014,07,01,03,41,12.00
2014,07,01,03,42,12.00
2014,07,01,03,43,12.00
2014,07,01,03,44,12.00
2014,07,01,03,45,11.90
2014,07,01,03,46,11.90
2014,07,01,03,47,11.90
2014,07,01,03,48,11.90
2014,07,01,03,49,11.90
2014,07,01,03,50,11.90
2014,07,01,03,51,11.90
2014,07,01,03,52,11.90
2014,07,01,03,53,11.90
2014,07,01,03,54,11.90
2014,07,01,03,55,11.90
2014,07,01,03,56,11.90
2014,07,01,03,57,11.90
2014,07,01,03,58,11.90
2014,07,01,03,59,11.90
2014,07,01,04,00,11.90
2014,07,01,04,01,11.90
2014,07,01,04,02,11.90
2014,07,01,04,03,11.90
2014,07,01,04,04,11.90
2014,07,01,04,05,11.90
2014,07,01,04,06,11.90
2014,07,01,04,07,11.90
2014,07,01,04,08,11.90
2014,07,01,04,09,11.90
2014,07,01,04,10,11.90
2014,07,01,04,11,11.90
2014,07,01,04,12,11.90
2014,07,01,04,13,11.90
2014,07,01,04,14,11.90
2014,07,01,04,15,11.90
2014,07,01,04,16,11.90
2014,07,01,04,17,11.90
2014,07,01,04,18,11.90
2014,07,01,04,19,11.90
2014,07,01,04,20,11.90
2014,07,01,04,21,11.90
2014,07,01,04,22,11.90
2014,07,01,04,23,12.00
2014,07,01,04,24,12.00
2014,07,01,04,25,12.10
2014,07,01,04,26,12.20
2014,07,01,04,27,12.30
2014,07,01,04,28,12.30
2014,07,01,04,29,12.30
2014,07,01,04,30,12.40
2014,07,01,04,31,12.40
2014,07,01,04,32,12.40
2014,07,01,04,33,12.40
2014,07,01,04,34,12.50
2014,07,01,04,35,12.50
2014,07,01,04,36,12.50
2014,07,01,04,37,12.60
2014,07,01,04,38,12.60
2014,07,01,04,39,12.50
2014,07,01,04,40,12.50
2014,07,01,04,41,12.40
2014,07,01,04,42,12.40
2014,07,01,04,43,12.30
2014,07,01,04,44,12.30
2014,07,01,04,45,12.40
2014,07,01,04,46,12.40
2014,07,01,04,47,12.40
2014,07,01,04,48,12.50
2014,07,01,04,49,12.50
2014,07,01,04,50,12.60
2014,07,01,04,51,12.60
2014,07,01,04,52,12.60
2014,07,01,04,53,12.60
2014,07,01,04,54,12.60
2014,07,01,04,55,12.60
2014,07,01,04,56,12.50
2014,07,01,04,57,12.50
2014,07,01,04,58,12.40
2014,07,01,04,59,12.40
2014,07,01,05,00,12.40
2014,07,01,05,01,12.40
2014,07,01,05,02,12.30
2014,07,01,05,03,12.30
2014,07,01,05,04,12.30
2014,07,01,05,05,12.30
2014,07,01,05,06,12.30
2014,07,01,05,07,12.20
2014,07,01,05,08,12.20
2014,07,01,05,09,12.20
2014,07,01,05,10,12.20
2014,07,01,05,11,12.20
2014,07,01,05,12,12.20
2014,07,01,05,13,12.10
2014,07,01,05,14,12.10
2014,07,01,05,15,12.10
2014,07,01,05,16,12.10
2014,07,01,05,17,12.10
2014,07,01,05,18,12.10
2014,07,01,05,19,12.00
2014,07,01,05,20,12.00
2014,07,01,05,21,12.00
2014,07,01,05,22,11.90
2014,07,01,05,23,11.90
2014,07,01,05,24,12.00
2014,07,01,05,25,12.00
2014,07,01,05,26,12.00
2014,07,01,05,27,12.00
2014,07,01,05,28,12.00
2014,07,01,05,29,12.00
2014,07,01,05,30,12.10
2014,07,01,05,31,12.10
2014,07,01,05,32,12.10
2014,07,01,05,33,12.10
2014,07,01,05,34,12.10
2014,07,01,05,35,12.10
2014,07,01,05,36,12.10
2014,07,01,05,37,12.10
2014,07,01,05,38,12.10
2014,07,01,05,39,12.10
2014,07,01,05,40,12.00
2014,07,01,05,41,12.00
2014,07,01,05,42,12.00
2014,07,01,05,43,11.90
2014,07,01,05,44,11.90
2014,07,01,05,45,11.90
2014,07,01,05,46,11.90
2014,07,01,05,47,11.80
2014,07,01,05,48,11.80
2014,07,01,05,49,11.80
2014,07,01,05,50,11.70
2014,07,01,05,51,11.70
2014,07,01,05,52,11.70
2014,07,01,05,53,11.70
2014,07,01,05,54,11.70
2014,07,01,05,55,11.70
2014,07,01,05,56,11.70
2014,07,01,05,57,11.60
2014,07,01,05,58,11.60
2014,07,01,05,59,11.70
2014,07,01,06,00,11.60
2014,07,01,06,01,11.70
2014,07,01,06,02,11.70
2014,07,01,06,03,11.70
2014,07,01,06,04,11.70
2014,07,01,06,05,11.70
2014,07,01,06,06,11.70
2014,07,01,06,07,11.70
2014,07,01,06,08,11.80
2014,07,01,06,09,11.80
2014,07,01,06,10,11.80
2014,07,01,06,11,11.80
2014,07,01,06,12,11.80
2014,07,01,06,13,11.80
2014,07,01,06,14,11.80
2014,07,01,06,15,11.80
2014,07,01,06,16,11.80
2014,07,01,06,17,11.80
2014,07,01,06,18,11.80
2014,07,01,06,19,11.80
2014,07,01,06,20,11.80
2014,07,01,06,21,11.80
2014,07,01,06,22,11.80
2014,07,01,06,23,11.80
2014,07,01,06,24,11.80
2014,07,01,06,25,11.80
2014,07,01,06,26,11.80
2014,07,01,06,27,11.80
2014,07,01,06,28,11.80
2014,07,01,06,29,11.90
2014,07,01,06,30,11.90
2014,07,01,06,31,11.80
2014,07,01,06,32,11.80
2014,07,01,06,33,11.80
2014,07,01,06,34,11.80
2014,07,01,06,35,11.80
2014,07,01,06,36,11.90
2014,07,01,06,37,11.90
2014,07,01,06,38,11.90
2014,07,01,06,39,11.90
2014,07,01,06,40,11.90
2014,07,01,06,41,11.90
2014,07,01,06,42,11.90
2014,07,01,06,43,11.90
2014,07,01,06,44,11.90
2014,07,01,06,45,12.00
2014,07,01,06,46,12.00
2014,07,01,06,47,12.00
2014,07,01,06,48,12.00
2014,07,01,06,49,12.00
2014,07,01,06,50,12.00
2014,07,01,06,51,12.00
2014,07,01,06,52,12.00
2014,07,01,06,53,12.00
2014,07,01,06,54,12.10
2014,07,01,06,55,12.10
2014,07,01,06,56,12.10
2014,07,01,06,57,12.10
2014,07,01,06,58,12.10
2014,07,01,06,59,12.10
2014,07,01,07,00,12.20
2014,07,01,07,01,12.20
2014,07,01,07,02,12.20
2014,07,01,07,03,12.30
2014,07,01,07,04,12.40
2014,07,01,07,05,12.50
2014,07,01,07,06,12.50
2014,07,01,07,07,12.60
2014,07,01,07,08,12.60
2014,07,01,07,09,12.70
2014,07,01,07,10,12.70
2014,07,01,07,11,12.70
2014,07,01,07,12,12.70
2014,07,01,07,13,12.70
2014,07,01,07,14,12.80
2014,07,01,07,15,12.80
2014,07,01,07,16,12.90
2014,07,01,07,17,12.90
2014,07,01,07,18,13.00
2014,07,01,07,19,13.00
2014,07,01,07,20,13.10
2014,07,01,07,21,13.10
2014,07,01,07,22,13.10
2014,07,01,07,23,13.10
2014,07,01,07,24,13.10
2014,07,01,07,25,13.20
2014,07,01,07,26,13.20
2014,07,01,07,27,13.20
2014,07,01,07,28,13.20
2014,07,01,07,29,13.20
2014,07,01,07,30,13.20
2014,07,01,07,31,13.30
2014,07,01,07,32,13.30
2014,07,01,07,33,13.40
2014,07,01,07,34,13.40
2014,07,01,07,35,13.50
2014,07,01,07,36,13.50
2014,07,01,07,37,13.60
2014,07,01,07,38,13.70
2014,07,01,07,39,13.80
2014,07,01,07,40,13.80
2014,07,01,07,41,13.90
2014,07,01,07,42,14.00
2014,07,01,07,43,14.10
2014,07,01,07,44,14.10
2014,07,01,07,45,14.10
2014,07,01,07,46,14.20
2014,07,01,07,47,14.20
2014,07,01,07,48,14.20
2014,07,01,07,49,14.30
2014,07,01,07,50,14.40
2014,07,01,07,51,14.50
2014,07,01,07,52,14.60
2014,07,01,07,53,14.70
2014,07,01,07,54,14.70
2014,07,01,07,55,14.80
2014,07,01,07,56,14.90
2014,07,01,07,57,15.00
2014,07,01,07,58,15.10
2014,07,01,07,59,15.20
2014,07,01,08,00,15.40
2014,07,01,08,01,15.50
2014,07,01,08,02,15.60
2014,07,01,08,03,15.60
2014,07,01,08,04,15.60
2014,07,01,08,05,15.70
2014,07,01,08,06,15.70
2014,07,01,08,07,15.80
2014,07,01,08,08,15.80
2014,07,01,08,09,15.90
2014,07,01,08,10,16.00
2014,07,01,08,11,16.00
2014,07,01,08,12,16.10
2014,07,01,08,13,16.20
2014,07,01,08,14,16.20
2014,07,01,08,15,16.30
2014,07,01,08,16,16.40
2014,07,01,08,17,16.50
2014,07,01,08,18,16.70
2014,07,01,08,19,16.80
2014,07,01,08,20,16.90
2014,07,01,08,21,17.00
2014,07,01,08,22,17.20
2014,07,01,08,23,17.30
2014,07,01,08,24,17.40
2014,07,01,08,25,17.50
2014,07,01,08,26,17.60
2014,07,01,08,27,17.70
2014,07,01,08,28,17.80
2014,07,01,08,29,17.80
2014,07,01,08,30,17.90
2014,07,01,08,31,17.90
2014,07,01,08,32,18.00
2014,07,01,08,33,18.00
2014,07,01,08,34,18.10
2014,07,01,08,35,18.20
2014,07,01,08,36,18.20
2014,07,01,08,37,18.30
2014,07,01,08,38,18.30
2014,07,01,08,39,18.40
2014,07,01,08,40,18.40
2014,07,01,08,41,18.50
2014,07,01,08,42,18.50
2014,07,01,08,43,18.60
2014,07,01,08,44,18.60
2014,07,01,08,45,18.60
2014,07,01,08,46,18.70
2014,07,01,08,47,18.70
2014,07,01,08,48,18.70
2014,07,01,08,49,18.70
2014,07,01,08,50,18.70
2014,07,01,08,51,18.80
2014,07,01,08,52,18.80
2014,07,01,08,53,18.80
2014,07,01,08,54,18.80
2014,07,01,08,55,18.90
2014,07,01,08,56,18.90
2014,07,01,08,57,19.00
2014,07,01,08,58,19.00
2014,07,01,08,59,19.10
2014,07,01,09,00,19.10
2014,07,01,09,01,19.20
2014,07,01,09,02,19.30
2014,07,01,09,03,19.30
2014,07,01,09,04,19.40
2014,07,01,09,05,19.50
2014,07,01,09,06,19.60
2014,07,01,09,07,19.70
2014,07,01,09,08,19.70
2014,07,01,09,09,19.80
2014,07,01,09,10,19.90
2014,07,01,09,11,19.90
2014,07,01,09,12,20.00
2014,07,01,09,13,20.10
2014,07,01,09,14,20.20
2014,07,01,09,15,20.30
2014,07,01,09,16,20.40
2014,07,01,09,17,20.50
2014,07,01,09,18,20.60
2014,07,01,09,19,20.70
2014,07,01,09,20,20.70
2014,07,01,09,21,20.80
2014,07,01,09,22,20.90
2014,07,01,09,23,21.00
2014,07,01,09,24,21.00
2014,07,01,09,25,21.10
2014,07,01,09,26,21.20
2014,07,01,09,27,21.20
2014,07,01,09,28,21.20
2014,07,01,09,29,21.20
2014,07,01,09,30,21.20
2014,07,01,09,31,21.20
2014,07,01,09,32,21.10
2014,07,01,09,33,21.00
2014,07,01,09,34,20.90
2014,07,01,09,35,20.90
2014,07,01,09,36,20.80
2014,07,01,09,37,20.80
2014,07,01,09,38,20.80
2014,07,01,09,39,20.70
2014,07,01,09,40,20.70
2014,07,01,09,41,20.70
2014,07,01,09,42,20.70
2014,07,01,09,43,20.80
2014,07,01,09,44,20.80
2014,07,01,09,45,20.70
2014,07,01,09,46,20.70
2014,07,01,09,47,20.70
2014,07,01,09,48,20.70
2014,07,01,09,49,20.70
2014,07,01,09,50,20.70
2014,07,01,09,51,20.70
2014,07,01,09,52,20.70
2014,07,01,09,53,20.70
2014,07,01,09,54,20.70
2014,07,01,09,55,20.80
2014,07,01,09,56,20.80
2014,07,01,09,57,20.80
2014,07,01,09,58,20.70
2014,07,01,09,59,20.70
2014,07,01,10,00,20.70
2014,07,01,10,01,20.70
2014,07,01,10,02,20.60
2014,07,01,10,03,20.70
2014,07,01,10,04,20.70
2014,07,01,10,05,20.70
2014,07,01,10,06,20.70
2014,07,01,10,07,20.70
2014,07,01,10,08,20.70
2014,07,01,10,09,20.80
2014,07,01,10,10,20.80
2014,07,01,10,11,20.80
2014,07,01,10,12,20.90
2014,07,01,10,13,20.90
2014,07,01,10,14,20.90
2014,07,01,10,15,21.00
2014,07,01,10,16,21.00
2014,07,01,10,17,20.90
2014,07,01,10,18,20.90
2014,07,01,10,19,20.80
2014,07,01,10,20,20.80
2014,07,01,10,21,20.80
2014,07,01,10,22,20.70
2014,07,01,10,23,20.70
2014,07,01,10,24,20.70
2014,07,01,10,25,20.70
2014,07,01,10,26,20.60
2014,07,01,10,27,20.60
2014,07,01,10,28,20.60
2014,07,01,10,29,20.60
2014,07,01,10,30,20.50
2014,07,01,10,31,20.50
2014,07,01,10,32,20.50
2014,07,01,10,33,20.50
2014,07,01,10,34,20.50
2014,07,01,10,35,20.50
2014,07,01,10,36,20.60
2014,07,01,10,37,20.70
2014,07,01,10,38,20.80
2014,07,01,10,39,20.90
2014,07,01,10,40,21.00
2014,07,01,10,41,21.10
2014,07,01,10,42,21.20
2014,07,01,10,43,21.30
2014,07,01,10,44,21.40
2014,07,01,10,45,21.40
2014,07,01,10,46,21.40
2014,07,01,10,47,21.40
2014,07,01,10,48,21.40
2014,07,01,10,49,21.30
2014,07,01,10,50,21.30
2014,07,01,10,51,21.30
2014,07,01,10,52,21.40
2014,07,01,10,53,21.40
2014,07,01,10,54,21.30
2014,07,01,10,55,21.30
2014,07,01,10,56,21.30
2014,07,01,10,57,21.30
2014,07,01,10,58,21.40
2014,07,01,10,59,21.40
2014,07,01,11,00,21.40
2014,07,01,11,01,21.40
2014,07,01,11,02,21.40
2014,07,01,11,03,21.30
2014,07,01,11,04,21.30
2014,07,01,11,05,21.30
2014,07,01,11,06,21.40
2014,07,01,11,07,21.40
2014,07,01,11,08,21.40
2014,07,01,11,09,21.40
2014,07,01,11,10,21.30
2014,07,01,11,11,21.30
2014,07,01,11,12,21.20
2014,07,01,11,13,21.20
2014,07,01,11,14,21.20
2014,07,01,11,15,21.20
2014,07,01,11,16,21.20
2014,07,01,11,17,21.30
2014,07,01,11,18,21.30
2014,07,01,11,19,21.30
2014,07,01,11,20,21.40
2014,07,01,11,21,21.40
2014,07,01,11,22,21.50
2014,07,01,11,23,21.50
2014,07,01,11,24,21.60
2014,07,01,11,25,21.60
2014,07,01,11,26,21.60
2014,07,01,11,27,21.60
2014,07,01,11,28,21.70
2014,07,01,11,29,21.70
2014,07,01,11,30,21.80
2014,07,01,11,31,21.90
2014,07,01,11,32,22.00
2014,07,01,11,33,22.00
2014,07,01,11,34,22.10
2014,07,01,11,35,22.10
2014,07,01,11,36,22.00
2014,07,01,11,37,22.00
2014,07,01,11,38,21.80
2014,07,01,11,39,21.60
2014,07,01,11,40,21.40
2014,07,01,11,41,21.20
2014,07,01,11,42,21.10
2014,07,01,11,43,20.90
2014,07,01,11,44,20.80
2014,07,01,11,45,20.70
2014,07,01,11,46,20.70
2014,07,01,11,47,20.60
2014,07,01,11,48,20.50
2014,07,01,11,49,20.40
2014,07,01,11,50,20.30
2014,07,01,11,51,20.30
2014,07,01,11,52,20.20
2014,07,01,11,53,20.20
2014,07,01,11,54,20.20
2014,07,01,11,55,20.10
2014,07,01,11,56,20.10
2014,07,01,11,57,20.10
2014,07,01,11,58,20.20
2014,07,01,11,59,20.20
2014,07,01,12,00,20.30
2014,07,01,12,01,20.30
2014,07,01,12,02,20.40
2014,07,01,12,03,20.40
2014,07,01,12,04,20.40
2014,07,01,12,05,20.50
2014,07,01,12,06,20.50
2014,07,01,12,07,20.60
2014,07,01,12,08,20.70
2014,07,01,12,09,20.70
2014,07,01,12,10,20.80
2014,07,01,12,11,20.70
2014,07,01,12,12,20.70
2014,07,01,12,13,20.60
2014,07,01,12,14,20.60
2014,07,01,12,15,20.50
2014,07,01,12,16,20.60
2014,07,01,12,17,20.50
2014,07,01,12,18,20.50
2014,07,01,12,19,20.40
2014,07,01,12,20,20.40
2014,07,01,12,21,20.40
2014,07,01,12,22,20.40
2014,07,01,12,23,20.50
2014,07,01,12,24,20.50
2014,07,01,12,25,20.50
2014,07,01,12,26,20.50
2014,07,01,12,27,20.50
2014,07,01,12,28,20.60
2014,07,01,12,29,20.70
2014,07,01,12,30,20.80
2014,07,01,12,31,20.90
2014,07,01,12,32,21.00
2014,07,01,12,33,21.00
2014,07,01,12,34,21.10
2014,07,01,12,35,21.20
2014,07,01,12,36,21.20
2014,07,01,12,37,21.30
2014,07,01,12,38,21.40
2014,07,01,12,39,21.50
2014,07,01,12,40,21.60
2014,07,01,12,41,21.80
2014,07,01,12,42,21.80
2014,07,01,12,43,21.90
2014,07,01,12,44,22.00
2014,07,01,12,45,22.00
2014,07,01,12,46,22.10
2014,07,01,12,47,22.10
2014,07,01,12,48,22.10
2014,07,01,12,49,22.00
2014,07,01,12,50,21.90
2014,07,01,12,51,21.80
2014,07,01,12,52,21.80
2014,07,01,12,53,21.70
2014,07,01,12,54,21.70
2014,07,01,12,55,21.60
2014,07,01,12,56,21.50
2014,07,01,12,57,21.50
2014,07,01,12,58,21.60
2014,07,01,12,59,21.60
2014,07,01,13,00,21.70
2014,07,01,13,01,21.70
2014,07,01,13,02,21.80
2014,07,01,13,03,21.80
2014,07,01,13,04,21.90
2014,07,01,13,05,21.90
2014,07,01,13,06,22.00
2014,07,01,13,07,22.10
2014,07,01,13,08,22.20
2014,07,01,13,09,22.20
2014,07,01,13,10,22.20
2014,07,01,13,11,22.30
2014,07,01,13,12,22.30
2014,07,01,13,13,22.30
2014,07,01,13,14,22.30
2014,07,01,13,15,22.30
2014,07,01,13,16,22.20
2014,07,01,13,17,22.10
2014,07,01,13,18,22.00
2014,07,01,13,19,21.90
2014,07,01,13,20,21.80
2014,07,01,13,21,21.70
2014,07,01,13,22,21.70
2014,07,01,13,23,21.70
2014,07,01,13,24,21.70
2014,07,01,13,25,21.60
2014,07,01,13,26,21.50
2014,07,01,13,27,21.40
2014,07,01,13,28,21.30
2014,07,01,13,29,21.20
2014,07,01,13,30,21.10
2014,07,01,13,31,21.10
2014,07,01,13,32,21.10
2014,07,01,13,33,21.10
2014,07,01,13,34,21.10
2014,07,01,13,35,21.20
2014,07,01,13,36,21.20
2014,07,01,13,37,21.20
2014,07,01,13,38,21.30
2014,07,01,13,39,21.40
2014,07,01,13,40,21.40
2014,07,01,13,41,21.50
2014,07,01,13,42,21.60
2014,07,01,13,43,21.70
2014,07,01,13,44,21.80
2014,07,01,13,45,21.80
2014,07,01,13,46,21.80
2014,07,01,13,47,21.80
2014,07,01,13,48,21.90
2014,07,01,13,49,21.90
2014,07,01,13,50,21.90
2014,07,01,13,51,21.90
2014,07,01,13,52,22.00
2014,07,01,13,53,22.10
2014,07,01,13,54,22.10
2014,07,01,13,55,22.20
2014,07,01,13,56,22.30
2014,07,01,13,57,22.40
2014,07,01,13,58,22.40
2014,07,01,13,59,22.50
2014,07,01,14,00,22.50
2014,07,01,14,01,22.50
2014,07,01,14,02,22.50
2014,07,01,14,03,22.50
2014,07,01,14,04,22.40
2014,07,01,14,05,22.40
2014,07,01,14,06,22.30
2014,07,01,14,07,22.30
2014,07,01,14,08,22.30
2014,07,01,14,09,22.30
2014,07,01,14,10,22.30
2014,07,01,14,11,22.30
2014,07,01,14,12,22.40
2014,07,01,14,13,22.20
2014,07,01,14,14,22.00
2014,07,01,14,15,21.90
2014,07,01,14,16,21.80
2014,07,01,14,17,21.80
2014,07,01,14,18,21.80
2014,07,01,14,19,21.80
2014,07,01,14,20,21.80
2014,07,01,14,21,21.80
2014,07,01,14,22,21.80
2014,07,01,14,23,21.80
2014,07,01,14,24,21.90
2014,07,01,14,25,22.00
2014,07,01,14,26,22.20
2014,07,01,14,27,22.30
2014,07,01,14,28,22.30
2014,07,01,14,29,22.40
2014,07,01,14,30,22.30
2014,07,01,14,31,22.20
2014,07,01,14,32,22.20
2014,07,01,14,33,22.20
2014,07,01,14,34,22.20
2014,07,01,14,35,22.30
2014,07,01,14,36,22.40
2014,07,01,14,37,22.50
2014,07,01,14,38,22.60
2014,07,01,14,39,22.60
2014,07,01,14,40,22.70
2014,07,01,14,41,22.70
2014,07,01,14,42,22.80
2014,07,01,14,43,22.90
2014,07,01,14,44,22.90
2014,07,01,14,45,22.90
2014,07,01,14,46,22.90
2014,07,01,14,47,22.90
2014,07,01,14,48,22.90
2014,07,01,14,49,22.80
2014,07,01,14,50,22.80
2014,07,01,14,51,22.80
2014,07,01,14,52,22.90
2014,07,01,14,53,22.90
2014,07,01,14,54,23.00
2014,07,01,14,55,23.10
2014,07,01,14,56,23.10
2014,07,01,14,57,23.20
2014,07,01,14,58,23.20
2014,07,01,14,59,23.20
2014,07,01,15,00,23.30
2014,07,01,15,01,23.30
2014,07,01,15,02,23.30
2014,07,01,15,03,23.30
2014,07,01,15,04,23.20
2014,07,01,15,05,23.10
2014,07,01,15,06,22.90
2014,07,01,15,07,22.80
2014,07,01,15,08,22.80
2014,07,01,15,09,22.70
2014,07,01,15,10,22.70
2014,07,01,15,11,22.60
2014,07,01,15,12,22.60
2014,07,01,15,13,22.60
2014,07,01,15,14,22.60
2014,07,01,15,15,22.60
2014,07,01,15,16,22.60
2014,07,01,15,17,22.60
2014,07,01,15,18,22.60
2014,07,01,15,19,22.70
2014,07,01,15,20,22.70
2014,07,01,15,21,22.70
2014,07,01,15,22,22.80
2014,07,01,15,23,22.90
2014,07,01,15,24,23.00
2014,07,01,15,25,23.10
2014,07,01,15,26,23.30
2014,07,01,15,27,23.40
2014,07,01,15,28,23.50
2014,07,01,15,29,23.60
2014,07,01,15,30,23.70
2014,07,01,15,31,23.70
2014,07,01,15,32,23.70
2014,07,01,15,33,23.70
2014,07,01,15,34,23.70
2014,07,01,15,35,23.80
2014,07,01,15,36,23.80
2014,07,01,15,37,23.90
2014,07,01,15,38,23.90
2014,07,01,15,39,23.90
2014,07,01,15,40,23.90
2014,07,01,15,41,23.70
2014,07,01,15,42,23.60
2014,07,01,15,43,23.50
2014,07,01,15,44,23.40
2014,07,01,15,45,23.40
2014,07,01,15,46,23.50
2014,07,01,15,47,23.50
2014,07,01,15,48,23.50
2014,07,01,15,49,23.50
2014,07,01,15,50,23.50
2014,07,01,15,51,23.60
2014,07,01,15,52,23.70
2014,07,01,15,53,23.70
2014,07,01,15,54,23.70
2014,07,01,15,55,23.80
2014,07,01,15,56,23.80
2014,07,01,15,57,23.90
2014,07,01,15,58,23.90
2014,07,01,15,59,24.00
2014,07,01,16,00,24.10
2014,07,01,16,01,24.20
2014,07,01,16,02,24.30
2014,07,01,16,03,24.40
2014,07,01,16,04,24.50
2014,07,01,16,05,24.50
2014,07,01,16,06,24.60
2014,07,01,16,07,24.60
2014,07,01,16,08,24.50
2014,07,01,16,09,24.50
2014,07,01,16,10,24.50
2014,07,01,16,11,24.50
2014,07,01,16,12,24.60
2014,07,01,16,13,24.60
2014,07,01,16,14,24.60
2014,07,01,16,15,24.60
2014,07,01,16,16,24.50
2014,07,01,16,17,24.40
2014,07,01,16,18,24.40
2014,07,01,16,19,24.30
2014,07,01,16,20,24.30
2014,07,01,16,21,24.30
2014,07,01,16,22,24.20
2014,07,01,16,23,24.20
2014,07,01,16,24,24.20
2014,07,01,16,25,24.20
2014,07,01,16,26,24.20
2014,07,01,16,27,24.20
2014,07,01,16,28,24.20
2014,07,01,16,29,24.20
2014,07,01,16,30,24.10
2014,07,01,16,31,24.10
2014,07,01,16,32,24.00
2014,07,01,16,33,24.00
2014,07,01,16,34,23.90
2014,07,01,16,35,23.90
2014,07,01,16,36,23.80
2014,07,01,16,37,23.70
2014,07,01,16,38,23.60
2014,07,01,16,39,23.50
2014,07,01,16,40,23.40
2014,07,01,16,41,23.40
2014,07,01,16,42,23.40
2014,07,01,16,43,23.40
2014,07,01,16,44,23.40
2014,07,01,16,45,23.40
2014,07,01,16,46,23.50
2014,07,01,16,47,23.70
2014,07,01,16,48,23.70
2014,07,01,16,49,23.80
2014,07,01,16,50,23.80
2014,07,01,16,51,23.90
2014,07,01,16,52,23.90
2014,07,01,16,53,23.90
2014,07,01,16,54,24.00
2014,07,01,16,55,24.10
2014,07,01,16,56,24.10
2014,07,01,16,57,24.20
2014,07,01,16,58,24.30
2014,07,01,16,59,24.30
2014,07,01,17,00,24.40
2014,07,01,17,01,24.40
2014,07,01,17,02,24.40
2014,07,01,17,03,24.30
2014,07,01,17,04,24.30
2014,07,01,17,05,24.20
2014,07,01,17,06,24.10
2014,07,01,17,07,24.00
2014,07,01,17,08,23.90
2014,07,01,17,09,23.70
2014,07,01,17,10,23.50
2014,07,01,17,11,23.30
2014,07,01,17,12,23.20
2014,07,01,17,13,23.00
2014,07,01,17,14,23.00
2014,07,01,17,15,23.00
2014,07,01,17,16,23.00
2014,07,01,17,17,23.10
2014,07,01,17,18,23.10
2014,07,01,17,19,23.10